When you browse on this site, cookies collect data to enhance your experience and personalize the content and advertising you see.
Visit our Privacy Policy to learn more. By continuing to use the site, you agree to this use of cookies and data.
  • Em Portugal
  • Lista de países
  • Para 7 dias
  • Temperatura da água
  • Mapas de satélite
  • Mapa do tempo
  • Widgets de tempo
  • user-avatar
    Iniciar Sessão

    Previsão horária em Dabrowka

    Hoje, 26 Junho, Quarta-feira

    Tempo Temperatura Precipitação Vento Pressão Humidade
    00:00 +20°C° 0 mm 2 m/s 755 mmHg 92%
    01:00 +19°C° 0 mm 2 m/s 755 mmHg 92%
    02:00 +19°C° 0 mm 2 m/s 754 mmHg 93%
    03:00 +19°C° 0 mm 2 m/s 754 mmHg 94%
    04:00 +19°C° 0 mm 2 m/s 754 mmHg 96%
    05:00 +21°C° 0 mm 2 m/s 754 mmHg 90%
    06:00 +24°C° 0 mm 3 m/s 754 mmHg 85%
    07:00 +26°C° 0 mm 2 m/s 754 mmHg 80%
    08:00 +28°C° 0 mm 2 m/s 754 mmHg 73%
    09:00 +29°C° 0 mm 2 m/s 753 mmHg 66%
    10:00 +31°C° 0 mm 1 m/s 753 mmHg 59%
    11:00 +32°C° 0 mm 2 m/s 753 mmHg 56%
    12:00 +34°C° 0 mm 2 m/s 753 mmHg 53%
    13:00 +35°C° 0 mm 3 m/s 752 mmHg 50%
    14:00 +35°C° 0.1 mm 3 m/s 752 mmHg 51%
    15:00 +34°C° 0.1 mm 3 m/s 751 mmHg 52%
    16:00 +34°C° 0.1 mm 3 m/s 751 mmHg 54%
    17:00 +33°C° 0 mm 3 m/s 750 mmHg 59%
    18:00 +30°C° 0 mm 3 m/s 750 mmHg 64%
    19:00 +29°C° 0 mm 2 m/s 750 mmHg 69%
    20:00 +28°C° 0 mm 3 m/s 749 mmHg 72%
    21:00 +27°C° 0 mm 3 m/s 749 mmHg 75%
    22:00 +26°C° 0 mm 3 m/s 749 mmHg 77%
    23:00 +25°C° 0.3 mm 3 m/s 749 mmHg 79%

    Amanhã, 27 Junho, Quinta-feira

    Tempo Temperatura Precipitação Vento Pressão Humidade
    00:00 +25°C° 0.3 mm 4 m/s 748 mmHg 81%
    01:00 +25°C° 0.3 mm 4 m/s 748 mmHg 82%
    02:00 +23°C° 1.6 mm 4 m/s 748 mmHg 86%
    03:00 +23°C° 1.6 mm 4 m/s 747 mmHg 90%
    04:00 +22°C° 1.6 mm 4 m/s 747 mmHg 93%
    05:00 +23°C° 0.2 mm 5 m/s 747 mmHg 90%
    06:00 +25°C° 0.2 mm 5 m/s 747 mmHg 86%
    07:00 +24°C° 0.2 mm 6 m/s 747 mmHg 83%
    08:00 +26°C° 0 mm 6 m/s 747 mmHg 77%
    09:00 +26°C° 0 mm 7 m/s 747 mmHg 71%
    10:00 +26°C° 0 mm 7 m/s 747 mmHg 66%
    11:00 +26°C° 0 mm 7 m/s 747 mmHg 61%
    12:00 +27°C° 0 mm 8 m/s 747 mmHg 56%
    13:00 +27°C° 0 mm 8 m/s 747 mmHg 51%
    14:00 +27°C° 0 mm 7 m/s 747 mmHg 51%
    15:00 +26°C° 0 mm 7 m/s 747 mmHg 52%
    16:00 +24°C° 0 mm 7 m/s 746 mmHg 52%
    17:00 +23°C° 0 mm 6 m/s 746 mmHg 58%
    18:00 +21°C° 0 mm 5 m/s 746 mmHg 65%
    19:00 +20°C° 0 mm 5 m/s 746 mmHg 72%
    20:00 +19°C° 0 mm 5 m/s 747 mmHg 74%
    21:00 +17°C° 0 mm 5 m/s 747 mmHg 76%
    22:00 +17°C° 0 mm 5 m/s 747 mmHg 77%
    23:00 +16°C° 0 mm 5 m/s 748 mmHg 81%

    Depois de amanhã, 28 Junho, Sexta-feira

    Tempo Temperatura Precipitação Vento Pressão Humidade
    00:00 +15°C° 0 mm 5 m/s 748 mmHg 84%
    01:00 +15°C° 0 mm 4 m/s 748 mmHg 88%
    02:00 +14°C° 0 mm 5 m/s 748 mmHg 87%
    03:00 +13°C° 0 mm 5 m/s 748 mmHg 86%
    04:00 +12°C° 0 mm 5 m/s 748 mmHg 86%
    05:00 +13°C° 0 mm 5 m/s 749 mmHg 79%
    06:00 +14°C° 0 mm 5 m/s 749 mmHg 73%
    07:00 +15°C° 0 mm 5 m/s 749 mmHg 67%
    08:00 +16°C° 0.1 mm 5 m/s 749 mmHg 64%
    09:00 +17°C° 0.1 mm 6 m/s 749 mmHg 61%
    10:00 +19°C° 0.1 mm 6 m/s 749 mmHg 57%
    11:00 +20°C° 0 mm 6 m/s 749 mmHg 56%
    12:00 +20°C° 0 mm 6 m/s 749 mmHg 55%
    13:00 +21°C° 0 mm 6 m/s 749 mmHg 54%
    14:00 +21°C° 0 mm 6 m/s 748 mmHg 53%
    15:00 +21°C° 0 mm 6 m/s 748 mmHg 53%
    16:00 +22°C° 0 mm 6 m/s 748 mmHg 52%
    17:00 +20°C° 0 mm 5 m/s 748 mmHg 57%
    18:00 +19°C° 0 mm 4 m/s 748 mmHg 62%
    19:00 +18°C° 0 mm 3 m/s 748 mmHg 68%
    20:00 +17°C° 0 mm 3 m/s 748 mmHg 70%
    21:00 +16°C° 0 mm 3 m/s 749 mmHg 73%
    22:00 +13°C° 0 mm 3 m/s 749 mmHg 75%
    23:00 +13°C° 0 mm 3 m/s 749 mmHg 76%

    29 Junho, Sábado

    Tempo Temperatura Precipitação Vento Pressão Humidade
    00:00 +12°C° 0 mm 3 m/s 749 mmHg 77%
    01:00 +11°C° 0 mm 3 m/s 749 mmHg 78%
    02:00 +11°C° 0 mm 3 m/s 750 mmHg 80%
    03:00 +10°C° 0 mm 3 m/s 750 mmHg 82%
    04:00 +10°C° 0 mm 3 m/s 750 mmHg 83%
    05:00 +11°C° 0 mm 4 m/s 750 mmHg 77%
    06:00 +13°C° 0 mm 5 m/s 750 mmHg 71%
    07:00 +15°C° 0 mm 5 m/s 750 mmHg 65%
    08:00 +16°C° 0 mm 5 m/s 750 mmHg 61%
    09:00 +17°C° 0 mm 5 m/s 750 mmHg 56%
    10:00 +19°C° 0 mm 5 m/s 750 mmHg 52%
    11:00 +20°C° 0 mm 5 m/s 750 mmHg 51%
    12:00 +21°C° 0 mm 5 m/s 750 mmHg 50%
    13:00 +22°C° 0 mm 5 m/s 750 mmHg 49%
    14:00 +22°C° 0 mm 5 m/s 750 mmHg 50%
    15:00 +22°C° 0 mm 4 m/s 750 mmHg 51%
    16:00 +22°C° 0 mm 4 m/s 749 mmHg 51%
    17:00 +21°C° 0 mm 3 m/s 750 mmHg 59%
    18:00 +20°C° 0 mm 2 m/s 750 mmHg 66%
    19:00 +20°C° 0 mm 1 m/s 750 mmHg 73%
    20:00 +19°C° 0 mm 1 m/s 750 mmHg 77%
    21:00 +17°C° 0 mm 2 m/s 750 mmHg 81%
    22:00 +16°C° 0 mm 2 m/s 750 mmHg 85%
    23:00 +16°C° 0 mm 2 m/s 750 mmHg 87%

    30 Junho, Domingo

    Tempo Temperatura Precipitação Vento Pressão Humidade
    00:00 +15°C° 0 mm 2 m/s 750 mmHg 88%
    01:00 +15°C° 0 mm 2 m/s 750 mmHg 90%
    02:00 +15°C° 0 mm 2 m/s 750 mmHg 90%
    03:00 +15°C° 0 mm 2 m/s 750 mmHg 89%
    04:00 +14°C° 0 mm 2 m/s 750 mmHg 89%
    05:00 +16°C° 0 mm 2 m/s 750 mmHg 81%
    06:00 +18°C° 0 mm 3 m/s 750 mmHg 73%
    07:00 +20°C° 0 mm 3 m/s 750 mmHg 65%
    08:00 +22°C° 0 mm 3 m/s 750 mmHg 60%
    09:00 +25°C° 0 mm 3 m/s 750 mmHg 54%
    10:00 +26°C° 0 mm 3 m/s 750 mmHg 48%
    11:00 +27°C° 0 mm 3 m/s 750 mmHg 46%
    12:00 +28°C° 0 mm 3 m/s 750 mmHg 44%
    13:00 +29°C° 0 mm 2 m/s 750 mmHg 42%
    14:00 +29°C° 0 mm 2 m/s 750 mmHg 43%
    15:00 +29°C° 0 mm 2 m/s 749 mmHg 44%
    16:00 +29°C° 0 mm 2 m/s 749 mmHg 45%
    17:00 +27°C° 0 mm 2 m/s 749 mmHg 53%
    18:00 +26°C° 0 mm 2 m/s 749 mmHg 60%
    19:00 +24°C° 0 mm 2 m/s 748 mmHg 68%
    20:00 +22°C° 0 mm 3 m/s 748 mmHg 70%
    21:00 +21°C° 0 mm 3 m/s 748 mmHg 72%
    22:00 +20°C° 0 mm 3 m/s 748 mmHg 74%
    23:00 +19°C° 0 mm 3 m/s 748 mmHg 77%

    1 Julho, Segunda-feira

    Tempo Temperatura Precipitação Vento Pressão Humidade
    00:00 +19°C° 0 mm 3 m/s 748 mmHg 79%
    01:00 +18°C° 0 mm 3 m/s 748 mmHg 82%
    02:00 +18°C° 0 mm 3 m/s 747 mmHg 85%
    03:00 +18°C° 0 mm 3 m/s 747 mmHg 88%
    04:00 +18°C° 0 mm 3 m/s 747 mmHg 91%
    05:00 +19°C° 0 mm 3 m/s 747 mmHg 85%
    06:00 +21°C° 0 mm 3 m/s 747 mmHg 79%
    07:00 +23°C° 0 mm 4 m/s 747 mmHg 73%
    08:00 +25°C° 0 mm 4 m/s 747 mmHg 68%
    09:00 +27°C° 0 mm 4 m/s 747 mmHg 63%
    10:00 +28°C° 0 mm 4 m/s 747 mmHg 58%
    11:00 +29°C° 0 mm 4 m/s 746 mmHg 56%
    12:00 +30°C° 0 mm 4 m/s 746 mmHg 54%
    13:00 +32°C° 0 mm 4 m/s 746 mmHg 52%
    14:00 +32°C° 0.1 mm 4 m/s 746 mmHg 53%
    15:00 +32°C° 0.1 mm 5 m/s 745 mmHg 54%
    16:00 +32°C° 0.1 mm 5 m/s 745 mmHg 55%
    17:00 +29°C° 1 mm 4 m/s 744 mmHg 64%
    18:00 +27°C° 1 mm 3 m/s 744 mmHg 73%
    19:00 +25°C° 1 mm 3 m/s 744 mmHg 82%
    20:00 +24°C° 3.6 mm 3 m/s 744 mmHg 86%
    21:00 +22°C° 3.6 mm 3 m/s 744 mmHg 90%
    22:00 +21°C° 3.6 mm 3 m/s 745 mmHg 95%
    23:00 +21°C° 0.1 mm 3 m/s 744 mmHg 95%
    Mostrar mais